Year,Month,Day,Hour,Minute,Value (Times are PST for temperature in C)
2008,05,23,00,00,8.80
2008,05,23,00,01,8.70
2008,05,23,00,02,8.70
2008,05,23,00,03,8.70
2008,05,23,00,04,8.70
2008,05,23,00,05,8.60
2008,05,23,00,06,8.60
2008,05,23,00,07,8.50
2008,05,23,00,08,8.50
2008,05,23,00,09,8.50
2008,05,23,00,10,8.40
2008,05,23,00,11,8.40
2008,05,23,00,12,8.40
2008,05,23,00,13,8.30
2008,05,23,00,14,8.30
2008,05,23,00,15,8.30
2008,05,23,00,16,8.20
2008,05,23,00,17,8.20
2008,05,23,00,18,8.20
2008,05,23,00,19,8.20
2008,05,23,00,20,8.20
2008,05,23,00,21,8.10
2008,05,23,00,22,8.10
2008,05,23,00,23,8.10
2008,05,23,00,24,8.10
2008,05,23,00,25,8.10
2008,05,23,00,26,8.10
2008,05,23,00,27,8.10
2008,05,23,00,28,8.00
2008,05,23,00,29,8.00
2008,05,23,00,30,8.00
2008,05,23,00,31,8.00
2008,05,23,00,32,8.00
2008,05,23,00,33,7.90
2008,05,23,00,34,7.90
2008,05,23,00,35,7.90
2008,05,23,00,36,7.90
2008,05,23,00,37,7.90
2008,05,23,00,38,7.90
2008,05,23,00,39,7.80
2008,05,23,00,40,7.80
2008,05,23,00,41,7.80
2008,05,23,00,42,7.80
2008,05,23,00,43,7.80
2008,05,23,00,44,7.80
2008,05,23,00,45,7.80
2008,05,23,00,46,7.80
2008,05,23,00,47,7.80
2008,05,23,00,48,7.80
2008,05,23,00,49,7.80
2008,05,23,00,50,7.70
2008,05,23,00,51,7.70
2008,05,23,00,52,7.70
2008,05,23,00,53,7.70
2008,05,23,00,54,7.70
2008,05,23,00,55,7.70
2008,05,23,00,56,7.70
2008,05,23,00,57,7.60
2008,05,23,00,58,7.60
2008,05,23,00,59,7.60
2008,05,23,01,00,7.50
2008,05,23,01,01,7.50
2008,05,23,01,02,7.40
2008,05,23,01,03,7.40
2008,05,23,01,04,7.40
2008,05,23,01,05,7.40
2008,05,23,01,06,7.30
2008,05,23,01,07,7.30
2008,05,23,01,08,7.30
2008,05,23,01,09,7.30
2008,05,23,01,10,7.30
2008,05,23,01,11,7.30
2008,05,23,01,12,7.30
2008,05,23,01,13,7.30
2008,05,23,01,14,7.30
2008,05,23,01,15,7.30
2008,05,23,01,16,7.30
2008,05,23,01,17,7.30
2008,05,23,01,18,7.30
2008,05,23,01,19,7.30
2008,05,23,01,20,7.30
2008,05,23,01,21,7.30
2008,05,23,01,22,7.30
2008,05,23,01,23,7.30
2008,05,23,01,24,7.30
2008,05,23,01,25,7.40
2008,05,23,01,26,7.40
2008,05,23,01,27,7.40
2008,05,23,01,28,7.40
2008,05,23,01,29,7.40
2008,05,23,01,30,7.40
2008,05,23,01,31,7.30
2008,05,23,01,32,7.30
2008,05,23,01,33,7.30
2008,05,23,01,34,7.30
2008,05,23,01,35,7.30
2008,05,23,01,36,7.20
2008,05,23,01,37,7.20
2008,05,23,01,38,7.20
2008,05,23,01,39,7.20
2008,05,23,01,40,7.10
2008,05,23,01,41,7.10
2008,05,23,01,42,7.10
2008,05,23,01,43,7.10
2008,05,23,01,44,7.00
2008,05,23,01,45,7.10
2008,05,23,01,46,7.10
2008,05,23,01,47,7.10
2008,05,23,01,48,7.10
2008,05,23,01,49,7.10
2008,05,23,01,50,7.10
2008,05,23,01,51,7.10
2008,05,23,01,52,7.10
2008,05,23,01,53,7.20
2008,05,23,01,54,7.20
2008,05,23,01,55,7.20
2008,05,23,01,56,7.10
2008,05,23,01,57,7.10
2008,05,23,01,58,7.10
2008,05,23,01,59,7.10
2008,05,23,02,00,7.10
2008,05,23,02,01,7.10
2008,05,23,02,02,7.10
2008,05,23,02,03,7.10
2008,05,23,02,04,7.00
2008,05,23,02,05,7.00
2008,05,23,02,06,7.00
2008,05,23,02,07,7.00
2008,05,23,02,08,6.90
2008,05,23,02,09,6.90
2008,05,23,02,10,6.90
2008,05,23,02,11,6.90
2008,05,23,02,12,6.90
2008,05,23,02,13,6.80
2008,05,23,02,14,6.80
2008,05,23,02,15,6.80
2008,05,23,02,16,6.80
2008,05,23,02,17,6.80
2008,05,23,02,18,6.80
2008,05,23,02,19,6.80
2008,05,23,02,20,6.80
2008,05,23,02,21,6.80
2008,05,23,02,22,6.80
2008,05,23,02,23,6.80
2008,05,23,02,24,6.80
2008,05,23,02,25,6.80
2008,05,23,02,26,6.80
2008,05,23,02,27,6.80
2008,05,23,02,28,6.80
2008,05,23,02,29,6.80
2008,05,23,02,30,6.80
2008,05,23,02,31,6.80
2008,05,23,02,32,6.80
2008,05,23,02,33,6.80
2008,05,23,02,34,6.80
2008,05,23,02,35,6.80
2008,05,23,02,36,6.80
2008,05,23,02,37,6.80
2008,05,23,02,38,6.80
2008,05,23,02,39,6.70
2008,05,23,02,40,6.70
2008,05,23,02,41,6.70
2008,05,23,02,42,6.70
2008,05,23,02,43,6.70
2008,05,23,02,44,6.70
2008,05,23,02,45,6.70
2008,05,23,02,46,6.60
2008,05,23,02,47,6.60
2008,05,23,02,48,6.60
2008,05,23,02,49,6.60
2008,05,23,02,50,6.60
2008,05,23,02,51,6.50
2008,05,23,02,52,6.40
2008,05,23,02,53,6.40
2008,05,23,02,54,6.40
2008,05,23,02,55,6.40
2008,05,23,02,56,6.40
2008,05,23,02,57,6.40
2008,05,23,02,58,6.40
2008,05,23,02,59,6.40
2008,05,23,03,00,6.40
2008,05,23,03,01,6.30
2008,05,23,03,02,6.30
2008,05,23,03,03,6.30
2008,05,23,03,04,6.30
2008,05,23,03,05,6.30
2008,05,23,03,06,6.40
2008,05,23,03,07,6.40
2008,05,23,03,08,6.40
2008,05,23,03,09,6.40
2008,05,23,03,10,6.40
2008,05,23,03,11,6.40
2008,05,23,03,12,6.40
2008,05,23,03,13,6.40
2008,05,23,03,14,6.40
2008,05,23,03,15,6.30
2008,05,23,03,16,6.30
2008,05,23,03,17,6.30
2008,05,23,03,18,6.30
2008,05,23,03,19,6.40
2008,05,23,03,20,6.40
2008,05,23,03,21,6.40
2008,05,23,03,22,6.40
2008,05,23,03,23,6.30
2008,05,23,03,24,6.30
2008,05,23,03,25,6.30
2008,05,23,03,26,6.30
2008,05,23,03,27,6.30
2008,05,23,03,28,6.30
2008,05,23,03,29,6.30
2008,05,23,03,30,6.30
2008,05,23,03,31,6.20
2008,05,23,03,32,6.20
2008,05,23,03,33,6.20
2008,05,23,03,34,6.20
2008,05,23,03,35,6.20
2008,05,23,03,36,6.20
2008,05,23,03,37,6.10
2008,05,23,03,38,6.10
2008,05,23,03,39,6.10
2008,05,23,03,40,6.10
2008,05,23,03,41,6.00
2008,05,23,03,42,6.00
2008,05,23,03,43,6.00
2008,05,23,03,44,6.00
2008,05,23,03,45,6.00
2008,05,23,03,46,5.90
2008,05,23,03,47,5.90
2008,05,23,03,48,5.90
2008,05,23,03,49,5.90
2008,05,23,03,50,5.90
2008,05,23,03,51,5.90
2008,05,23,03,52,5.80
2008,05,23,03,53,5.80
2008,05,23,03,54,5.80
2008,05,23,03,55,5.80
2008,05,23,03,56,5.80
2008,05,23,03,57,5.80
2008,05,23,03,58,5.70
2008,05,23,03,59,5.70
2008,05,23,04,00,5.70
2008,05,23,04,01,5.70
2008,05,23,04,02,5.70
2008,05,23,04,03,5.70
2008,05,23,04,04,5.70
2008,05,23,04,05,5.70
2008,05,23,04,06,5.70
2008,05,23,04,07,5.70
2008,05,23,04,08,5.70
2008,05,23,04,09,5.70
2008,05,23,04,10,5.70
2008,05,23,04,11,5.70
2008,05,23,04,12,5.70
2008,05,23,04,13,5.70
2008,05,23,04,14,5.70
2008,05,23,04,15,5.70
2008,05,23,04,16,5.70
2008,05,23,04,17,5.70
2008,05,23,04,18,5.70
2008,05,23,04,19,5.70
2008,05,23,04,20,5.60
2008,05,23,04,21,5.60
2008,05,23,04,22,5.60
2008,05,23,04,23,5.60
2008,05,23,04,24,5.60
2008,05,23,04,25,5.60
2008,05,23,04,26,5.60
2008,05,23,04,27,5.50
2008,05,23,04,28,5.50
2008,05,23,04,29,5.50
2008,05,23,04,30,5.50
2008,05,23,04,31,5.50
2008,05,23,04,32,5.50
2008,05,23,04,33,5.50
2008,05,23,04,34,5.60
2008,05,23,04,35,5.60
2008,05,23,04,36,5.60
2008,05,23,04,37,5.60
2008,05,23,04,38,5.60
2008,05,23,04,39,5.50
2008,05,23,04,40,5.50
2008,05,23,04,41,5.50
2008,05,23,04,42,5.40
2008,05,23,04,43,5.40
2008,05,23,04,44,5.40
2008,05,23,04,45,5.40
2008,05,23,04,46,5.40
2008,05,23,04,47,5.40
2008,05,23,04,48,5.40
2008,05,23,04,49,5.40
2008,05,23,04,50,5.40
2008,05,23,04,51,5.40
2008,05,23,04,52,5.40
2008,05,23,04,53,5.30
2008,05,23,04,54,5.30
2008,05,23,04,55,5.40
2008,05,23,04,56,5.40
2008,05,23,04,57,5.40
2008,05,23,04,58,5.40
2008,05,23,04,59,5.40
2008,05,23,05,00,5.40
2008,05,23,05,01,5.40
2008,05,23,05,02,5.40
2008,05,23,05,03,5.40
2008,05,23,05,04,5.40
2008,05,23,05,05,5.40
2008,05,23,05,06,5.40
2008,05,23,05,07,5.40
2008,05,23,05,08,5.40
2008,05,23,05,09,5.50
2008,05,23,05,10,5.50
2008,05,23,05,11,5.50
2008,05,23,05,12,5.50
2008,05,23,05,13,5.50
2008,05,23,05,14,5.50
2008,05,23,05,15,5.50
2008,05,23,05,16,5.40
2008,05,23,05,17,5.40
2008,05,23,05,18,5.40
2008,05,23,05,19,5.40
2008,05,23,05,20,5.40
2008,05,23,05,21,5.40
2008,05,23,05,22,5.40
2008,05,23,05,23,5.30
2008,05,23,05,24,5.30
2008,05,23,05,25,5.30
2008,05,23,05,26,5.30
2008,05,23,05,27,5.30
2008,05,23,05,28,5.30
2008,05,23,05,29,5.30
2008,05,23,05,30,5.30
2008,05,23,05,31,5.30
2008,05,23,05,32,5.30
2008,05,23,05,33,5.30
2008,05,23,05,34,5.30
2008,05,23,05,35,5.30
2008,05,23,05,36,5.30
2008,05,23,05,37,5.30
2008,05,23,05,38,5.40
2008,05,23,05,39,5.40
2008,05,23,05,40,5.40
2008,05,23,05,41,5.30
2008,05,23,05,42,5.30
2008,05,23,05,43,5.30
2008,05,23,05,44,5.30
2008,05,23,05,45,5.30
2008,05,23,05,46,5.30
2008,05,23,05,47,5.40
2008,05,23,05,48,5.50
2008,05,23,05,49,5.60
2008,05,23,05,50,5.70
2008,05,23,05,51,5.70
2008,05,23,05,52,5.70
2008,05,23,05,53,5.60
2008,05,23,05,54,5.60
2008,05,23,05,55,5.60
2008,05,23,05,56,5.60
2008,05,23,05,57,5.60
2008,05,23,05,58,5.70
2008,05,23,05,59,5.70
2008,05,23,06,00,5.70
2008,05,23,06,01,5.80
2008,05,23,06,02,5.80
2008,05,23,06,03,5.80
2008,05,23,06,04,5.80
2008,05,23,06,05,5.80
2008,05,23,06,06,5.80
2008,05,23,06,07,5.80
2008,05,23,06,08,5.80
2008,05,23,06,09,5.80
2008,05,23,06,10,5.90
2008,05,23,06,11,5.90
2008,05,23,06,12,5.90
2008,05,23,06,13,5.90
2008,05,23,06,14,6.00
2008,05,23,06,15,6.00
2008,05,23,06,16,6.00
2008,05,23,06,17,6.00
2008,05,23,06,18,6.10
2008,05,23,06,19,6.10
2008,05,23,06,20,6.10
2008,05,23,06,21,6.20
2008,05,23,06,22,6.30
2008,05,23,06,23,6.40
2008,05,23,06,24,6.50
2008,05,23,06,25,6.60
2008,05,23,06,26,6.70
2008,05,23,06,27,6.70
2008,05,23,06,28,6.80
2008,05,23,06,29,6.80
2008,05,23,06,30,6.80
2008,05,23,06,31,6.80
2008,05,23,06,32,6.90
2008,05,23,06,33,6.90
2008,05,23,06,34,7.00
2008,05,23,06,35,7.00
2008,05,23,06,36,7.10
2008,05,23,06,37,7.10
2008,05,23,06,38,7.20
2008,05,23,06,39,7.20
2008,05,23,06,40,7.20
2008,05,23,06,41,7.20
2008,05,23,06,42,7.20
2008,05,23,06,43,7.20
2008,05,23,06,44,7.20
2008,05,23,06,45,7.20
2008,05,23,06,46,7.30
2008,05,23,06,47,7.30
2008,05,23,06,48,7.30
2008,05,23,06,49,7.30
2008,05,23,06,50,7.30
2008,05,23,06,51,7.40
2008,05,23,06,52,7.40
2008,05,23,06,53,7.40
2008,05,23,06,54,7.40
2008,05,23,06,55,7.40
2008,05,23,06,56,7.40
2008,05,23,06,57,7.40
2008,05,23,06,58,7.40
2008,05,23,06,59,7.40
2008,05,23,07,00,7.40
2008,05,23,07,01,7.40
2008,05,23,07,02,7.40
2008,05,23,07,03,7.40
2008,05,23,07,04,7.40
2008,05,23,07,05,7.40
2008,05,23,07,06,7.40
2008,05,23,07,07,7.40
2008,05,23,07,08,7.40
2008,05,23,07,09,7.40
2008,05,23,07,10,7.40
2008,05,23,07,11,7.40
2008,05,23,07,12,7.40
2008,05,23,07,13,7.40
2008,05,23,07,14,7.40
2008,05,23,07,15,7.50
2008,05,23,07,16,7.50
2008,05,23,07,17,7.50
2008,05,23,07,18,7.50
2008,05,23,07,19,7.60
2008,05,23,07,20,7.60
2008,05,23,07,21,7.70
2008,05,23,07,22,7.80
2008,05,23,07,23,7.80
2008,05,23,07,24,7.90
2008,05,23,07,25,8.00
2008,05,23,07,26,8.10
2008,05,23,07,27,8.20
2008,05,23,07,28,8.30
2008,05,23,07,29,8.30
2008,05,23,07,30,8.40
2008,05,23,07,31,8.50
2008,05,23,07,32,8.60
2008,05,23,07,33,8.70
2008,05,23,07,34,8.90
2008,05,23,07,35,9.00
2008,05,23,07,36,9.00
2008,05,23,07,37,9.10
2008,05,23,07,38,9.10
2008,05,23,07,39,9.20
2008,05,23,07,40,9.20
2008,05,23,07,41,9.20
2008,05,23,07,42,9.20
2008,05,23,07,43,9.30
2008,05,23,07,44,9.30
2008,05,23,07,45,9.40
2008,05,23,07,46,9.40
2008,05,23,07,47,9.50
2008,05,23,07,48,9.50
2008,05,23,07,49,9.60
2008,05,23,07,50,9.60
2008,05,23,07,51,9.70
2008,05,23,07,52,9.70
2008,05,23,07,53,9.70
2008,05,23,07,54,9.70
2008,05,23,07,55,9.70
2008,05,23,07,56,9.70
2008,05,23,07,57,9.70
2008,05,23,07,58,9.70
2008,05,23,07,59,9.70
2008,05,23,08,00,9.80
2008,05,23,08,01,9.80
2008,05,23,08,02,9.80
2008,05,23,08,03,9.90
2008,05,23,08,04,9.90
2008,05,23,08,05,9.90
2008,05,23,08,06,9.90
2008,05,23,08,07,9.90
2008,05,23,08,08,9.90
2008,05,23,08,09,10.00
2008,05,23,08,10,10.10
2008,05,23,08,11,10.10
2008,05,23,08,12,10.20
2008,05,23,08,13,10.20
2008,05,23,08,14,10.20
2008,05,23,08,15,10.30
2008,05,23,08,16,10.30
2008,05,23,08,17,10.30
2008,05,23,08,18,10.30
2008,05,23,08,19,10.30
2008,05,23,08,20,10.40
2008,05,23,08,21,10.40
2008,05,23,08,22,10.40
2008,05,23,08,23,10.40
2008,05,23,08,24,10.40
2008,05,23,08,25,10.50
2008,05,23,08,26,10.60
2008,05,23,08,27,10.60
2008,05,23,08,28,10.60
2008,05,23,08,29,10.70
2008,05,23,08,30,10.70
2008,05,23,08,31,10.70
2008,05,23,08,32,10.80
2008,05,23,08,33,10.90
2008,05,23,08,34,10.90
2008,05,23,08,35,10.90
2008,05,23,08,36,10.90
2008,05,23,08,37,10.90
2008,05,23,08,38,11.00
2008,05,23,08,39,11.10
2008,05,23,08,40,11.10
2008,05,23,08,41,11.10
2008,05,23,08,42,11.20
2008,05,23,08,43,11.30
2008,05,23,08,44,11.30
2008,05,23,08,45,11.40
2008,05,23,08,46,11.40
2008,05,23,08,47,11.50
2008,05,23,08,48,11.60
2008,05,23,08,49,11.60
2008,05,23,08,50,11.60
2008,05,23,08,51,11.70
2008,05,23,08,52,11.70
2008,05,23,08,53,11.80
2008,05,23,08,54,11.80
2008,05,23,08,55,11.80
2008,05,23,08,56,11.90
2008,05,23,08,57,12.00
2008,05,23,08,58,12.00
2008,05,23,08,59,12.10
2008,05,23,09,00,12.20
2008,05,23,09,01,12.30
2008,05,23,09,02,12.40
2008,05,23,09,03,12.50
2008,05,23,09,04,12.60
2008,05,23,09,05,12.70
2008,05,23,09,06,12.80
2008,05,23,09,07,12.80
2008,05,23,09,08,12.80
2008,05,23,09,09,12.80
2008,05,23,09,10,12.90
2008,05,23,09,11,12.90
2008,05,23,09,12,12.90
2008,05,23,09,13,13.00
2008,05,23,09,14,13.00
2008,05,23,09,15,13.00
2008,05,23,09,16,13.10
2008,05,23,09,17,13.10
2008,05,23,09,18,13.20
2008,05,23,09,19,13.30
2008,05,23,09,20,13.30
2008,05,23,09,21,13.30
2008,05,23,09,22,13.30
2008,05,23,09,23,13.40
2008,05,23,09,24,13.40
2008,05,23,09,25,13.50
2008,05,23,09,26,13.60
2008,05,23,09,27,13.70
2008,05,23,09,28,13.90
2008,05,23,09,29,14.00
2008,05,23,09,30,14.10
2008,05,23,09,31,14.20
2008,05,23,09,32,14.20
2008,05,23,09,33,14.30
2008,05,23,09,34,14.30
2008,05,23,09,35,14.30
2008,05,23,09,36,14.30
2008,05,23,09,37,14.40
2008,05,23,09,38,14.40
2008,05,23,09,39,14.40
2008,05,23,09,40,14.40
2008,05,23,09,41,14.30
2008,05,23,09,42,14.30
2008,05,23,09,43,14.20
2008,05,23,09,44,14.20
2008,05,23,09,45,14.10
2008,05,23,09,46,14.10
2008,05,23,09,47,14.10
2008,05,23,09,48,14.10
2008,05,23,09,49,14.10
2008,05,23,09,50,14.10
2008,05,23,09,51,14.10
2008,05,23,09,52,14.10
2008,05,23,09,53,14.20
2008,05,23,09,54,14.20
2008,05,23,09,55,14.20
2008,05,23,09,56,14.20
2008,05,23,09,57,14.20
2008,05,23,09,58,14.10
2008,05,23,09,59,14.00
2008,05,23,10,00,13.90
2008,05,23,10,01,13.90
2008,05,23,10,02,13.90
2008,05,23,10,03,13.80
2008,05,23,10,04,13.70
2008,05,23,10,05,13.70
2008,05,23,10,06,13.70
2008,05,23,10,07,13.70
2008,05,23,10,08,13.70
2008,05,23,10,09,13.70
2008,05,23,10,10,13.70
2008,05,23,10,11,13.80
2008,05,23,10,12,13.90
2008,05,23,10,13,14.00
2008,05,23,10,14,14.10
2008,05,23,10,15,14.20
2008,05,23,10,16,14.20
2008,05,23,10,17,14.20
2008,05,23,10,18,14.20
2008,05,23,10,19,14.20
2008,05,23,10,20,14.30
2008,05,23,10,21,14.30
2008,05,23,10,22,14.40
2008,05,23,10,23,14.50
2008,05,23,10,24,14.60
2008,05,23,10,25,14.70
2008,05,23,10,26,14.80
2008,05,23,10,27,14.80
2008,05,23,10,28,14.80
2008,05,23,10,29,14.80
2008,05,23,10,30,14.80
2008,05,23,10,31,14.80
2008,05,23,10,32,14.80
2008,05,23,10,33,14.90
2008,05,23,10,34,14.90
2008,05,23,10,35,14.90
2008,05,23,10,36,14.60
2008,05,23,10,37,14.30
2008,05,23,10,38,14.10
2008,05,23,10,39,14.00
2008,05,23,10,40,13.90
2008,05,23,10,41,13.90
2008,05,23,10,42,13.90
2008,05,23,10,43,13.90
2008,05,23,10,44,13.80
2008,05,23,10,45,13.80
2008,05,23,10,46,13.60
2008,05,23,10,47,13.50
2008,05,23,10,48,13.40
2008,05,23,10,49,13.30
2008,05,23,10,50,13.10
2008,05,23,10,51,13.00
2008,05,23,10,52,13.00
2008,05,23,10,53,13.00
2008,05,23,10,54,12.90
2008,05,23,10,55,12.80
2008,05,23,10,56,12.80
2008,05,23,10,57,12.80
2008,05,23,10,58,12.80
2008,05,23,10,59,12.80
2008,05,23,11,00,12.80
2008,05,23,11,01,12.80
2008,05,23,11,02,12.80
2008,05,23,11,03,12.80
2008,05,23,11,04,12.90
2008,05,23,11,05,12.80
2008,05,23,11,06,12.80
2008,05,23,11,07,12.80
2008,05,23,11,08,12.80
2008,05,23,11,09,12.90
2008,05,23,11,10,12.90
2008,05,23,11,11,12.90
2008,05,23,11,12,13.00
2008,05,23,11,13,13.00
2008,05,23,11,14,13.00
2008,05,23,11,15,13.00
2008,05,23,11,16,13.00
2008,05,23,11,17,12.90
2008,05,23,11,18,12.70
2008,05,23,11,19,12.60
2008,05,23,11,20,12.50
2008,05,23,11,21,12.50
2008,05,23,11,22,12.50
2008,05,23,11,23,12.40
2008,05,23,11,24,12.30
2008,05,23,11,25,12.30
2008,05,23,11,26,12.30
2008,05,23,11,27,12.30
2008,05,23,11,28,12.30
2008,05,23,11,29,12.30
2008,05,23,11,30,12.30
2008,05,23,11,31,12.30
2008,05,23,11,32,12.30
2008,05,23,11,33,12.30
2008,05,23,11,34,12.30
2008,05,23,11,35,12.30
2008,05,23,11,36,12.30
2008,05,23,11,37,12.30
2008,05,23,11,38,12.40
2008,05,23,11,39,12.50
2008,05,23,11,40,12.60
2008,05,23,11,41,12.70
2008,05,23,11,42,12.80
2008,05,23,11,43,12.80
2008,05,23,11,44,12.90
2008,05,23,11,45,13.00
2008,05,23,11,46,13.00
2008,05,23,11,47,13.10
2008,05,23,11,48,13.20
2008,05,23,11,49,13.30
2008,05,23,11,50,13.30
2008,05,23,11,51,13.40
2008,05,23,11,52,13.50
2008,05,23,11,53,13.60
2008,05,23,11,54,13.70
2008,05,23,11,55,13.70
2008,05,23,11,56,13.80
2008,05,23,11,57,13.80
2008,05,23,11,58,13.80
2008,05,23,11,59,13.70
2008,05,23,12,00,13.70
2008,05,23,12,01,13.60
2008,05,23,12,02,13.60
2008,05,23,12,03,13.50
2008,05,23,12,04,13.60
2008,05,23,12,05,13.60
2008,05,23,12,06,13.70
2008,05,23,12,07,13.80
2008,05,23,12,08,13.80
2008,05,23,12,09,13.70
2008,05,23,12,10,13.70
2008,05,23,12,11,13.70
2008,05,23,12,12,13.70
2008,05,23,12,13,13.60
2008,05,23,12,14,13.60
2008,05,23,12,15,13.70
2008,05,23,12,16,13.70
2008,05,23,12,17,13.70
2008,05,23,12,18,13.70
2008,05,23,12,19,13.80
2008,05,23,12,20,13.90
2008,05,23,12,21,14.00
2008,05,23,12,22,14.10
2008,05,23,12,23,14.20
2008,05,23,12,24,14.30
2008,05,23,12,25,14.40
2008,05,23,12,26,14.50
2008,05,23,12,27,14.60
2008,05,23,12,28,14.70
2008,05,23,12,29,14.80
2008,05,23,12,30,14.80
2008,05,23,12,31,14.90
2008,05,23,12,32,15.00
2008,05,23,12,33,15.10
2008,05,23,12,34,15.10
2008,05,23,12,35,15.20
2008,05,23,12,36,15.30
2008,05,23,12,37,15.40
2008,05,23,12,38,15.50
2008,05,23,12,39,15.60
2008,05,23,12,40,15.60
2008,05,23,12,41,15.60
2008,05,23,12,42,15.60
2008,05,23,12,43,15.70
2008,05,23,12,44,15.70
2008,05,23,12,45,15.60
2008,05,23,12,46,15.50
2008,05,23,12,47,15.50
2008,05,23,12,48,15.50
2008,05,23,12,49,15.60
2008,05,23,12,50,15.50
2008,05,23,12,51,15.50
2008,05,23,12,52,15.50
2008,05,23,12,53,15.60
2008,05,23,12,54,15.70
2008,05,23,12,55,15.90
2008,05,23,12,56,16.00
2008,05,23,12,57,16.10
2008,05,23,12,58,16.20
2008,05,23,12,59,16.30
2008,05,23,13,00,16.30
2008,05,23,13,01,16.20
2008,05,23,13,02,16.10
2008,05,23,13,03,16.10
2008,05,23,13,04,16.10
2008,05,23,13,05,16.10
2008,05,23,13,06,16.20
2008,05,23,13,07,16.30
2008,05,23,13,08,16.30
2008,05,23,13,09,16.30
2008,05,23,13,10,16.30
2008,05,23,13,11,16.30
2008,05,23,13,12,16.20
2008,05,23,13,13,16.10
2008,05,23,13,14,16.10
2008,05,23,13,15,16.00
2008,05,23,13,16,16.10
2008,05,23,13,17,16.10
2008,05,23,13,18,16.10
2008,05,23,13,19,16.10
2008,05,23,13,20,16.00
2008,05,23,13,21,15.90
2008,05,23,13,22,15.90
2008,05,23,13,23,15.80
2008,05,23,13,24,15.80
2008,05,23,13,25,15.80
2008,05,23,13,26,15.90
2008,05,23,13,27,15.90
2008,05,23,13,28,15.90
2008,05,23,13,29,15.90
2008,05,23,13,30,15.90
2008,05,23,13,31,15.90
2008,05,23,13,32,15.90
2008,05,23,13,33,15.80
2008,05,23,13,34,15.80
2008,05,23,13,35,15.70
2008,05,23,13,36,15.60
2008,05,23,13,37,15.50
2008,05,23,13,38,15.50
2008,05,23,13,39,15.40
2008,05,23,13,40,15.50
2008,05,23,13,41,15.50
2008,05,23,13,42,15.60
2008,05,23,13,43,15.70
2008,05,23,13,44,15.80
2008,05,23,13,45,15.80
2008,05,23,13,46,15.80
2008,05,23,13,47,15.90
2008,05,23,13,48,16.10
2008,05,23,13,49,16.10
2008,05,23,13,50,16.20
2008,05,23,13,51,16.20
2008,05,23,13,52,16.30
2008,05,23,13,53,16.20
2008,05,23,13,54,16.10
2008,05,23,13,55,15.90
2008,05,23,13,56,15.80
2008,05,23,13,57,15.60
2008,05,23,13,58,15.60
2008,05,23,13,59,15.60
2008,05,23,14,00,15.60
2008,05,23,14,01,15.70
2008,05,23,14,02,15.80
2008,05,23,14,03,15.80
2008,05,23,14,04,15.90
2008,05,23,14,05,16.00
2008,05,23,14,06,16.10
2008,05,23,14,07,16.10
2008,05,23,14,08,16.20
2008,05,23,14,09,16.20
2008,05,23,14,10,16.20
2008,05,23,14,11,16.20
2008,05,23,14,12,16.20
2008,05,23,14,13,16.30
2008,05,23,14,14,16.30
2008,05,23,14,15,16.30
2008,05,23,14,16,16.10
2008,05,23,14,17,15.80
2008,05,23,14,18,15.70
2008,05,23,14,19,15.60
2008,05,23,14,20,15.50
2008,05,23,14,21,15.50
2008,05,23,14,22,15.60
2008,05,23,14,23,15.70
2008,05,23,14,24,15.80
2008,05,23,14,25,15.90
2008,05,23,14,26,16.00
2008,05,23,14,27,16.10
2008,05,23,14,28,16.20
2008,05,23,14,29,16.40
2008,05,23,14,30,16.50
2008,05,23,14,31,16.60
2008,05,23,14,32,16.70
2008,05,23,14,33,16.70
2008,05,23,14,34,16.50
2008,05,23,14,35,16.20
2008,05,23,14,36,15.90
2008,05,23,14,37,15.70
2008,05,23,14,38,15.60
2008,05,23,14,39,15.50
2008,05,23,14,40,15.40
2008,05,23,14,41,15.40
2008,05,23,14,42,15.30
2008,05,23,14,43,15.30
2008,05,23,14,44,15.30
2008,05,23,14,45,15.40
2008,05,23,14,46,15.50
2008,05,23,14,47,15.60
2008,05,23,14,48,15.80
2008,05,23,14,49,15.80
2008,05,23,14,50,15.90
2008,05,23,14,51,15.90
2008,05,23,14,52,15.90
2008,05,23,14,53,15.80
2008,05,23,14,54,15.70
2008,05,23,14,55,15.70
2008,05,23,14,56,15.60
2008,05,23,14,57,15.60
2008,05,23,14,58,15.50
2008,05,23,14,59,15.30
2008,05,23,15,00,15.20
2008,05,23,15,01,15.10
2008,05,23,15,02,15.00
2008,05,23,15,03,14.90
2008,05,23,15,04,14.90
2008,05,23,15,05,14.90
2008,05,23,15,06,14.90
2008,05,23,15,07,14.90
2008,05,23,15,08,15.00
2008,05,23,15,09,15.00
2008,05,23,15,10,15.10
2008,05,23,15,11,15.10
2008,05,23,15,12,15.20
2008,05,23,15,13,15.20
2008,05,23,15,14,15.20
2008,05,23,15,15,15.20
2008,05,23,15,16,15.20
2008,05,23,15,17,15.20
2008,05,23,15,18,15.10
2008,05,23,15,19,15.00
2008,05,23,15,20,14.90
2008,05,23,15,21,14.90
2008,05,23,15,22,14.90
2008,05,23,15,23,14.90
2008,05,23,15,24,14.90
2008,05,23,15,25,14.90
2008,05,23,15,26,14.80
2008,05,23,15,27,14.80
2008,05,23,15,28,14.80
2008,05,23,15,29,14.80
2008,05,23,15,30,14.80
2008,05,23,15,31,14.80
2008,05,23,15,32,14.70
2008,05,23,15,33,14.70
2008,05,23,15,34,14.60
2008,05,23,15,35,14.60
2008,05,23,15,36,14.60
2008,05,23,15,37,14.60
2008,05,23,15,38,14.70
2008,05,23,15,39,14.70
2008,05,23,15,40,14.70
2008,05,23,15,41,14.70
2008,05,23,15,42,14.70
2008,05,23,15,43,14.70
2008,05,23,15,44,14.70
2008,05,23,15,45,14.70
2008,05,23,15,46,14.80
2008,05,23,15,47,14.80
2008,05,23,15,48,14.80
2008,05,23,15,49,14.80
2008,05,23,15,50,14.80
2008,05,23,15,51,14.80
2008,05,23,15,52,14.80
2008,05,23,15,53,14.80
2008,05,23,15,54,14.80
2008,05,23,15,55,14.90
2008,05,23,15,56,14.90
2008,05,23,15,57,15.00
2008,05,23,15,58,15.00
2008,05,23,15,59,15.10
2008,05,23,16,00,15.10
2008,05,23,16,01,15.20
2008,05,23,16,02,15.20
2008,05,23,16,03,15.20
2008,05,23,16,04,15.20
2008,05,23,16,05,15.20
2008,05,23,16,06,15.20
2008,05,23,16,07,15.30
2008,05,23,16,08,15.30
2008,05,23,16,09,15.30
2008,05,23,16,10,15.30
2008,05,23,16,11,15.40
2008,05,23,16,12,15.40
2008,05,23,16,13,15.40
2008,05,23,16,14,15.30
2008,05,23,16,15,15.30
2008,05,23,16,16,15.30
2008,05,23,16,17,15.30
2008,05,23,16,18,15.30
2008,05,23,16,19,15.40
2008,05,23,16,20,15.40
2008,05,23,16,21,15.40
2008,05,23,16,22,15.40
2008,05,23,16,23,15.40
2008,05,23,16,24,15.30
2008,05,23,16,25,15.30
2008,05,23,16,26,15.30
2008,05,23,16,27,15.30
2008,05,23,16,28,15.30
2008,05,23,16,29,15.30
2008,05,23,16,30,15.30
2008,05,23,16,31,15.30
2008,05,23,16,32,15.30
2008,05,23,16,33,15.30
2008,05,23,16,34,15.30
2008,05,23,16,35,15.30
2008,05,23,16,36,15.30
2008,05,23,16,37,15.30
2008,05,23,16,38,15.40
2008,05,23,16,39,15.40
2008,05,23,16,40,15.40
2008,05,23,16,41,15.40
2008,05,23,16,42,15.50
2008,05,23,16,43,15.50
2008,05,23,16,44,15.50
2008,05,23,16,45,15.60
2008,05,23,16,46,15.60
2008,05,23,16,47,15.60
2008,05,23,16,48,15.60
2008,05,23,16,49,15.70
2008,05,23,16,50,15.70
2008,05,23,16,51,15.70
2008,05,23,16,52,15.80
2008,05,23,16,53,15.80
2008,05,23,16,54,15.80
2008,05,23,16,55,15.80
2008,05,23,16,56,15.80
2008,05,23,16,57,15.80
2008,05,23,16,58,15.80
2008,05,23,16,59,15.80
2008,05,23,17,00,15.80
2008,05,23,17,01,15.80
2008,05,23,17,02,15.80
2008,05,23,17,03,15.80
2008,05,23,17,04,15.80
2008,05,23,17,05,15.80
2008,05,23,17,06,15.80
2008,05,23,17,07,15.80
2008,05,23,17,08,15.80
2008,05,23,17,09,15.80
2008,05,23,17,10,15.80
2008,05,23,17,11,15.80
2008,05,23,17,12,15.80
2008,05,23,17,13,15.80
2008,05,23,17,14,15.80
2008,05,23,17,15,15.80
2008,05,23,17,16,15.80
2008,05,23,17,17,15.80
2008,05,23,17,18,15.80
2008,05,23,17,19,15.80
2008,05,23,17,20,15.80
2008,05,23,17,21,15.80
2008,05,23,17,22,15.90
2008,05,23,17,23,15.90
2008,05,23,17,24,15.90
2008,05,23,17,25,15.90
2008,05,23,17,26,15.90
2008,05,23,17,27,15.90
2008,05,23,17,28,15.90
2008,05,23,17,29,15.90
2008,05,23,17,30,15.90
2008,05,23,17,31,15.80
2008,05,23,17,32,15.80
2008,05,23,17,33,15.80
2008,05,23,17,34,15.80
2008,05,23,17,35,15.80
2008,05,23,17,36,15.80
2008,05,23,17,37,15.80
2008,05,23,17,38,15.80
2008,05,23,17,39,15.80
2008,05,23,17,40,15.80